Weather Roundup
Issued by NWS Springfield, MO

Home | Current Version | Previous Version | Text Only | Print | Product List | Glossary On
Versions: 1 2 3 4 5 6 7 8 9 10 11 12 13 14 15 16 17 18 19 20 21 22 23 24 25 26 27 28 29 30 31 32 33 34 35 36 37 38 39 40 41 42 43 44 45 46 47 48 49 50
820
NZUS99 KSGF 231157
HRRSGF

HOURLY WEATHER
NATIONAL WEATHER SERVICE SPRINGFIELD MO
700 AM CDT SAT SEP 23 2017

......SGF CWA......

CITY           SKY/WX    TMP DP  RH WIND       PRES   REMARKS
SPRINGFIELD    CLEAR     69  67  93 SE9       30.03R
6HR MIN TEMP:  68; 6HR MAX TEMP:  73;

JOPLIN         CLEAR     69  68  96 E6        30.01R
6HR MIN TEMP:  69; 6HR MAX TEMP:  74;

WEST PLAINS    CLEAR     64  62  93 CALM      30.07R
6HR MIN TEMP:  64; 6HR MAX TEMP:  72;

ROLLA          CLEAR     67  65  93 S7        30.06R
6HR MIN TEMP:  65; 6HR MAX TEMP:  72;


......SURROUNDING SGF CWA......

CITY           SKY/WX    TMP DP  RH WIND       PRES   REMARKS
CHANUTE        CLEAR     69  66  90 SE6       30.00R
PARSONS        CLEAR     67  65  93 CALM      30.00R
COFFEYVILLE    CLEAR     68  66  93 CALM      29.99R
EMPORIA        CLEAR     67  64  90 S7        29.98R
HARRISON AR    CLEAR     65  65 100 SE3       30.06R

......KANSAS AND MISSOURI......

CITY           SKY/WX    TMP DP  RH WIND       PRES   REMARKS
KANSAS CTY INT CLEAR     70  67  90 S8        29.99R
SEDALIA        CLEAR     68  67  96 S6        30.03R
ST JOSEPH      CLEAR     69  68  96 S6        29.98R
ST LOUIS       PTCLDY    69  66  90 E3        30.05R
WICHITA        PTCLDY    70  65  84 SE7       29.95R
TOPEKA         CLEAR     69  67  93 E5        29.97R
OLATHE         CLEAR     67  67 100 SE3       30.00R

......TENNESSEE......

CITY           SKY/WX    TMP DP  RH WIND       PRES   REMARKS
MEMPHIS        NOT AVBL
NASHVILLE      CLEAR     68  66  93 CALM      30.05R

......ARKANSAS.......

CITY           SKY/WX    TMP DP  RH WIND       PRES   REMARKS
FAYETTEVILLE   PTCLDY    61  61 100 CALM      30.04R FOG
FT SMITH       CLEAR     70  68  93 NE5       29.99R
LITTLE ROCK    CLEAR     71  71 100 CALM      30.00R

......OKLAHOMA.......

CITY           SKY/WX    TMP DP  RH WIND       PRES   REMARKS
TULSA          CLEAR     67  66  97 SE7       29.96R
PONCA CITY     CLEAR     72  64  76 SE10      29.95R
MCALESTER      PTCLDY    71  67  87 CALM      29.99R
OKLAHOMA CITY  CLEAR     67  64  90 S7        29.96R

......IOWA............

CITY           SKY/WX    TMP DP  RH WIND       PRES   REMARKS
DES MOINES     NOT AVBL
QUAD CITIES    CLEAR     66  62  87 CALM      30.03R

......ILLINOIS........

CITY           SKY/WX    TMP DP  RH WIND       PRES   REMARKS
QUINCY         NOT AVBL
CHICAGO        PTCLDY    74  65  73 CALM      30.07R




USA.gov is the U.S. government's official web portal to all federal, state and local government web resources and services.